Theta_e
336 337 338 341 354 352 358 362 357 359 353 345 351 354 360 360 359 360 351 351 350 348 343 342 343 344 342 342 342 343 345 344 343 342 340 339 335 333 330 329 327 326 324 323 322 319 319 317 315
339 340 340 345 357 360 357 355 357 356 349 351 353 354 357 360 354 354 353 351 346 345 344 343 342 343 344 345 344 343 344 343 342 341 338 334 331 329 325 321 320 320 322 323 321 318 317 316 315
342 342 347 350 355 359 353 354 349 351 346 345 340 344 353 358 355 354 354 350 345 346 346 345 345 346 345 343 343 343 343 342 341 339 334 331 328 321 318 319 321 322 322 320 318 317 315 314 314
346 346 345 355 351 351 349 348 351 348 343 340 342 348 351 353 354 355 353 349 345 347 348 349 348 346 345 343 342 342 340 335 337 334 331 326 320 317 320 321 321 321 321 320 320 320 320 320 320
342 345 352 353 354 348 347 346 345 346 345 345 343 351 355 355 355 354 353 349 348 349 349 348 347 345 344 341 341 339 336 333 331 329 324 319 317 319 321 321 321 321 321 321 322 322 322 322 321
347 348 354 355 351 347 345 343 342 344 344 344 349 353 354 354 355 354 353 351 349 348 347 346 345 344 341 341 341 337 335 332 326 324 321 319 317 321 322 322 322 322 322 323 323 322 322 322 322
348 348 351 349 350 350 346 345 345 345 345 348 348 354 352 353 353 353 352 351 349 348 346 345 344 343 341 341 337 335 329 325 321 321 319 318 319 322 322 323 324 324 323 323 323 323 323 324 327
343 347 352 349 351 351 345 344 343 348 353 347 347 354 354 350 355 354 351 351 350 348 346 344 344 343 341 338 338 331 326 322 319 320 319 321 320 323 325 325 327 326 324 324 324 325 325 326 327
343 348 353 351 350 348 343 345 344 347 350 348 347 347 348 351 352 354 352 350 350 349 346 343 342 341 341 339 336 329 327 319 320 320 320 322 323 324 329 329 329 328 326 325 326 326 329 330 329
345 344 346 343 345 346 340 344 344 346 345 342 341 342 349 350 350 348 351 351 349 347 346 344 341 338 338 339 336 330 324 320 321 321 322 323 325 330 327 330 330 330 329 327 328 331 333 333 332
344 344 344 345 344 343 339 343 340 341 343 341 342 339 349 349 348 348 347 351 350 348 347 345 339 338 340 340 334 329 324 320 321 323 326 327 328 332 333 333 332 332 331 329 330 334 334 333 332
343 343 342 343 343 344 344 342 344 340 341 341 339 337 347 348 347 346 346 349 350 347 347 344 336 338 341 340 333 326 322 320 323 328 332 334 333 335 335 334 334 333 333 334 333 332 333 333 333
342 341 341 341 341 343 341 341 342 342 340 341 338 340 340 346 346 346 346 346 349 346 345 342 338 342 344 343 340 330 321 324 333 334 335 335 336 335 335 334 335 334 332 331 331 333 333 331 330
340 341 340 339 340 341 341 340 341 341 341 342 339 339 339 345 345 344 344 345 347 346 344 343 345 345 345 344 342 335 330 332 334 334 334 335 334 334 333 333 332 333 332 333 333 332 326 326 323
338 339 340 340 341 344 339 337 338 339 337 344 342 342 342 344 347 345 345 345 346 346 345 346 347 347 346 344 342 338 335 334 334 336 335 334 333 331 331 332 332 331 333 333 328 325 323 321 319
334 334 338 337 337 337 335 337 336 338 335 343 346 342 344 349 348 347 345 345 346 346 347 348 347 346 344 342 338 337 337 335 336 335 334 331 329 329 330 332 331 331 330 322 321 320 319 317 315
330 333 335 337 337 338 335 334 336 336 338 336 346 348 348 346 337 340 348 345 346 346 346 347 345 344 343 339 335 335 335 332 330 331 334 332 330 331 333 332 332 327 322 320 318 315 314 314 313
334 334 332 333 335 337 335 334 334 335 338 345 351 351 343 339 336 335 340 340 346 346 346 346 345 343 342 343 340 336 332 334 337 336 336 332 331 334 332 328 325 322 320 316 315 314 314 313 313
334 335 334 334 333 335 334 334 335 335 341 344 348 350 336 333 335 334 333 344 348 348 348 346 346 345 346 345 343 341 338 339 338 338 335 334 333 332 330 327 323 319 313 315 315 315 314 313 314
334 334 334 334 334 332 334 335 336 338 338 340 343 343 343 336 335 335 333 345 347 346 348 349 348 346 344 343 342 341 340 340 338 336 335 334 332 331 329 326 322 310 312 316 315 315 315 314 314
334 333 334 335 332 331 334 331 338 341 339 338 339 335 338 337 334 335 344 345 345 346 346 346 345 344 342 341 341 340 340 338 336 334 333 331 331 328 326 321 314 313 314 316 316 316 316 314 313
335 333 333 332 326 329 326 329 335 340 342 339 340 340 339 339 335 331 347 346 345 345 345 343 341 341 341 340 339 339 339 337 335 333 331 327 327 325 322 318 316 315 314 316 316 317 315 314 314
334 332 325 328 331 330 331 332 332 339 340 338 339 338 333 339 340 347 345 344 345 345 343 342 340 340 340 339 338 338 337 334 334 333 329 324 324 323 320 318 317 315 315 316 316 317 316 315 315
331 330 327 326 326 330 330 334 336 343 341 339 342 337 335 347 344 335 343 343 343 342 342 341 340 338 337 337 336 336 334 333 333 332 329 326 321 320 319 319 317 315 315 316 316 317 317 317 315
329 327 331 332 331 334 329 340 337 341 339 340 343 344 341 342 339 335 339 342 341 340 341 339 338 334 330 327 325 330 331 329 327 319 320 324 323 319 319 318 317 316 315 316 316 316 317 317 317
332 328 330 336 336 334 335 346 344 339 336 339 339 339 339 340 337 337 338 342 341 339 340 339 337 329 327 325 325 325 324 322 321 319 316 319 322 319 317 317 317 316 315 315 316 316 316 316 315
331 331 327 332 335 337 339 342 341 340 340 340 337 339 339 338 337 335 333 330 337 339 339 338 336 329 326 325 327 326 324 323 322 317 314 319 318 318 318 318 318 317 316 315 315 316 316 317 315
332 329 331 331 341 344 339 342 342 341 341 337 336 336 334 334 334 333 333 331 332 337 339 337 335 328 326 326 325 323 322 321 320 320 316 318 318 318 319 318 319 318 316 315 315 315 316 316 315
328 327 334 331 337 343 345 341 339 338 339 337 338 335 332 332 334 332 330 335 334 338 337 335 332 327 326 326 326 325 325 323 321 319 318 318 318 318 319 319 319 319 318 316 315 315 316 316 315
326 328 334 337 337 340 339 340 341 337 337 336 338 334 328 331 331 329 329 331 338 335 335 334 329 325 325 326 327 327 326 322 319 319 319 317 317 318 319 319 320 320 319 318 316 316 315 315 315
Wind_Speed
4 3 4 5 3 1 1 5 8 12 5 3 8 11 9 5 1 3 16 21 30 33 29 26 23 20 19 18 18 17 17 17 13 11 7 8 8 7 6 5 4 3 3 3 2 3 3 4 5
4 5 2 1 2 3 4 3 10 11 2 13 12 8 6 3 5 11 14 27 33 33 31 27 23 22 21 19 19 18 17 17 14 10 8 9 8 7 6 4 3 3 3 3 3 4 5 5 6
1 6 3 3 3 3 4 7 10 5 7 5 5 6 4 3 12 13 18 35 35 34 30 27 25 24 22 20 20 19 17 15 13 10 9 9 8 6 6 5 4 3 3 3 3 5 5 5 6
3 3 4 1 5 5 6 11 12 5 4 8 9 7 5 6 19 17 36 34 35 33 30 28 27 24 21 20 19 17 14 12 13 12 11 9 8 7 6 5 5 4 3 3 4 5 6 7 8
8 3 4 3 7 7 7 10 10 4 1 7 6 5 2 2 14 32 36 33 33 32 30 28 25 23 21 19 18 16 14 14 14 12 11 10 9 8 7 6 5 4 3 3 4 5 7 8 10
4 2 4 2 7 9 8 8 13 2 10 10 7 6 1 19 32 36 35 32 30 32 29 26 23 21 21 20 18 17 16 15 13 12 12 11 9 8 7 5 4 3 2 3 5 6 7 9 11
5 4 3 2 6 7 8 19 11 5 10 6 7 4 3 14 24 33 33 30 29 31 31 28 27 25 22 21 19 18 16 14 14 13 12 11 10 8 6 5 3 1 1 2 3 6 7 10 12
4 3 4 6 7 8 4 11 13 3 4 1 2 6 6 12 29 25 29 29 31 31 31 31 29 26 24 21 20 18 17 16 15 14 12 11 10 9 7 5 3 1 1 3 5 8 10 11 13
4 4 4 6 4 8 16 1 6 3 7 2 5 7 8 34 30 23 23 25 29 30 32 33 31 27 26 23 21 19 18 17 16 14 13 13 11 11 9 7 5 3 4 5 7 10 12 14 14
2 3 6 9 10 9 12 11 8 3 3 2 5 10 21 31 30 24 25 24 26 28 33 34 32 30 27 25 22 22 20 19 18 15 14 14 12 9 10 10 10 9 9 9 8 11 12 10 11
5 8 7 8 17 14 10 12 6 9 4 9 9 9 14 20 25 24 25 32 38 35 34 36 34 31 30 28 26 23 21 20 18 16 15 12 12 11 11 13 14 14 11 12 9 5 9 11 9
5 11 6 6 10 6 13 7 11 8 10 17 17 15 16 18 17 24 24 29 27 30 37 35 34 33 31 29 25 24 23 22 21 20 16 12 9 9 8 7 6 6 4 3 6 10 9 7 6
8 9 5 11 14 23 15 18 23 19 20 15 13 13 14 17 19 26 26 30 33 33 34 35 33 33 31 28 25 24 25 24 23 20 16 11 13 12 9 6 4 2 5 10 9 8 9 8 8
8 5 8 12 15 8 11 10 5 10 9 13 14 16 17 18 19 17 25 28 37 34 34 35 34 33 31 29 26 25 25 24 22 19 18 16 13 9 5 3 3 5 9 8 9 7 7 8 8
5 8 8 4 4 6 7 3 6 5 5 12 14 15 13 13 12 16 29 33 34 34 36 37 37 34 34 33 26 27 27 24 21 20 21 13 9 7 5 4 4 8 5 7 5 5 5 9 13
4 5 3 6 3 4 2 8 7 5 7 8 10 9 7 5 25 19 23 32 35 38 38 37 36 34 35 28 25 24 29 25 22 18 14 10 8 6 4 2 3 3 4 6 5 8 11 13 15
7 1 4 6 5 1 3 8 9 4 4 2 3 12 15 13 31 5 9 31 38 36 34 36 32 33 31 26 20 23 26 21 15 10 8 6 7 4 0 0 1 5 4 5 7 10 12 13 14
3 4 5 5 4 2 6 11 11 6 3 5 6 8 9 15 12 20 22 40 28 33 36 32 30 28 22 18 16 15 15 14 9 8 7 8 7 5 5 7 8 4 4 6 8 10 11 12 13
4 4 7 17 10 4 9 12 12 4 11 9 6 8 7 12 11 15 43 19 15 22 25 25 24 21 18 17 16 15 17 13 12 8 9 8 10 9 8 5 1 5 6 6 8 9 11 14 15
7 5 15 12 17 9 17 19 2 7 2 6 4 5 7 1 3 2 11 25 23 28 25 23 21 18 15 13 13 14 15 11 10 11 10 11 10 10 5 0 4 5 4 5 7 9 10 10 13
12 5 12 13 10 5 2 6 3 4 7 10 5 4 2 5 1 6 12 21 27 27 23 21 17 14 13 12 13 10 11 11 11 13 11 13 15 10 4 3 3 7 3 3 6 8 10 7 8
5 18 15 16 4 4 6 4 2 4 6 7 2 2 7 5 5 7 10 15 24 24 19 21 18 12 16 12 14 16 18 18 16 15 17 17 13 7 3 1 1 5 1 2 4 5 6 5 7
9 15 8 3 1 3 7 5 3 4 3 3 4 8 10 2 5 5 8 15 19 22 23 23 21 16 15 13 14 15 18 17 15 16 14 14 12 7 6 2 2 4 2 1 3 3 5 6 8
6 3 7 4 3 4 5 5 4 1 3 5 5 8 11 6 8 7 11 10 19 21 23 22 22 17 13 12 12 13 15 13 16 14 15 11 11 11 9 5 3 3 3 3 4 5 6 8 9
11 6 4 4 4 5 3 3 4 4 1 2 4 6 5 7 9 5 7 16 18 24 21 21 23 23 20 20 17 17 19 18 16 12 9 13 16 16 10 4 3 3 5 5 6 7 9 9 9
4 5 4 6 4 5 4 3 3 6 4 6 5 4 1 4 9 12 10 13 16 10 26 23 25 26 22 19 18 18 17 15 13 10 9 10 14 11 7 5 4 5 6 6 8 9 10 11 11
3 5 5 4 1 2 2 2 2 4 5 6 5 3 5 6 7 1 4 14 18 22 25 25 25 25 21 17 19 16 15 14 11 6 6 10 11 7 4 4 6 7 9 9 9 11 12 13 14
4 3 4 3 2 3 4 3 4 2 2 3 5 4 2 0 1 4 7 11 7 26 26 26 28 27 23 21 21 19 16 11 8 6 7 9 7 5 5 6 10 12 12 11 12 14 15 15 16
7 5 4 4 4 5 2 5 5 5 2 4 2 4 4 5 1 3 3 11 20 27 31 31 30 28 28 26 24 22 17 12 10 7 9 9 8 7 9 11 13 15 16 15 14 16 17 17 18
5 5 4 5 5 3 4 5 3 3 2 4 4 3 3 3 3 3 8 11 21 28 30 33 32 30 28 30 26 24 18 16 13 9 7 7 8 9 12 13 15 17 18 19 18 19 19 20 20
Wind_Direction
136 140 155 155 30 16 26 139 210 273 316 2 61 108 99 36 51 190 143 167 159 159 163 163 160 156 152 150 145 143 141 132 136 141 144 123 114 111 108 103 96 77 63 53 33 2 1 347 337
124 152 141 115 84 38 294 236 208 223 148 107 96 106 53 77 68 122 117 157 161 162 164 164 162 160 156 154 154 155 151 152 164 165 151 137 133 131 127 119 104 83 51 31 19 14 1 354 343
167 161 116 132 174 197 222 219 238 263 226 158 105 62 85 113 120 152 168 161 162 162 163 161 162 161 159 158 161 160 161 163 171 163 152 144 143 143 136 128 116 98 77 47 19 11 8 5 359
79 46 24 70 277 241 211 213 218 240 299 81 128 77 76 279 154 165 158 161 162 164 163 161 163 163 167 167 166 169 172 162 155 158 156 156 155 149 141 132 123 119 99 66 37 19 16 9 2
62 46 60 351 299 305 286 207 198 172 108 129 118 118 85 51 175 153 158 160 162 165 165 166 170 174 174 168 168 171 169 163 162 164 165 163 160 151 142 132 129 112 87 54 32 13 6 1 355
59 95 55 352 292 318 300 10 316 200 111 113 89 100 108 143 141 153 160 164 167 166 172 172 176 178 177 173 175 170 170 169 169 169 171 167 160 154 143 141 132 107 74 33 24 12 4 1 356
113 71 191 218 335 314 348 3 353 293 116 96 125 101 118 159 160 159 166 169 168 168 171 174 175 178 177 178 178 172 174 175 176 179 176 169 162 161 158 164 140 116 49 21 358 351 348 350 351
115 104 341 338 348 283 326 333 289 15 63 146 60 143 173 200 177 165 168 170 170 174 174 177 179 182 180 180 183 179 178 181 181 181 177 172 168 170 173 183 204 212 289 331 328 337 331 333 336
159 84 215 214 193 282 309 6 324 351 115 144 186 170 196 169 171 172 166 167 172 179 182 183 182 184 185 182 184 183 183 184 185 184 181 180 179 187 189 204 224 252 278 292 313 323 327 325 317
95 193 199 190 192 205 230 192 178 118 139 351 263 91 142 163 171 174 169 176 177 179 184 188 185 185 185 185 187 190 185 186 186 186 182 190 193 203 225 240 253 258 276 291 311 317 308 316 303
208 233 135 222 196 227 238 324 140 151 270 225 218 167 163 172 178 187 181 183 185 184 183 191 187 187 186 188 194 192 192 188 186 185 183 190 207 219 239 251 262 268 270 281 284 314 319 312 311
191 249 205 326 200 230 254 293 303 225 241 218 216 176 177 182 187 193 195 186 182 181 185 191 189 187 191 195 194 197 194 190 188 187 190 194 214 231 214 227 227 223 232 289 287 290 314 327 344
268 242 200 201 185 205 235 242 244 268 261 217 187 168 192 191 193 200 203 188 181 182 184 187 187 190 191 196 198 199 197 193 190 194 194 208 187 166 154 159 164 184 297 318 325 332 346 350 5
241 138 221 212 238 209 207 247 170 263 227 173 174 192 200 196 198 187 174 167 179 180 181 184 190 194 196 200 200 199 199 195 196 207 207 185 188 201 212 232 270 305 328 338 347 18 50 52 24
134 146 204 235 276 251 226 226 211 227 338 183 192 196 182 205 198 171 174 163 168 178 184 187 194 197 200 202 202 210 203 201 199 188 180 190 207 229 263 282 303 326 336 351 63 61 25 355 352
24 66 165 230 142 218 223 264 284 192 174 230 214 189 167 343 35 331 154 162 173 178 181 188 189 192 199 194 197 207 199 191 186 186 190 218 224 239 261 289 346 358 54 68 40 20 4 2 354
11 305 314 300 196 185 157 258 242 283 290 212 154 169 119 107 78 21 278 174 170 174 182 182 187 182 182 180 173 172 170 178 185 193 209 194 171 169 24 101 80 101 93 49 34 23 17 8 353
257 293 248 259 285 349 266 256 264 339 94 109 128 150 122 114 125 67 25 301 176 170 178 178 178 175 178 180 178 184 178 177 186 190 189 178 165 168 130 119 108 79 21 27 24 19 17 13 0
215 237 260 281 259 204 249 267 279 232 138 146 142 158 123 139 154 100 67 345 171 151 161 168 172 177 182 183 176 184 180 174 175 190 165 163 160 163 158 154 108 354 349 40 36 23 19 17 6
281 259 275 280 268 173 253 264 75 12 106 140 129 88 116 164 190 192 156 171 188 151 157 161 170 175 187 188 187 189 188 183 176 166 160 163 162 167 179 127 4 18 26 60 29 19 25 19 11
268 244 271 240 284 229 101 303 121 35 83 48 58 48 9 232 133 248 164 165 153 144 150 155 164 168 170 171 183 171 168 162 171 167 164 163 165 180 192 309 30 24 26 38 29 26 17 12 5
250 264 237 252 46 294 143 278 39 64 58 37 356 349 266 270 287 197 162 149 146 141 157 148 142 165 177 186 185 180 180 175 184 183 173 169 183 173 189 155 37 19 6 3 18 16 18 339 318
236 276 230 285 345 56 336 78 311 355 82 304 329 232 239 157 188 159 141 147 136 146 151 150 139 140 158 177 177 176 183 183 188 189 176 170 173 183 185 183 8 344 262 305 333 316 332 318 299
239 35 47 44 86 29 272 124 287 331 300 350 359 9 70 98 93 58 61 114 143 151 152 155 140 133 142 155 162 190 195 174 163 176 198 188 174 177 181 202 273 340 274 273 298 293 302 311 297
39 46 352 356 350 227 201 68 218 170 66 90 51 22 56 126 135 153 176 182 171 160 161 158 143 135 132 126 121 127 140 140 150 156 177 198 197 183 185 224 251 316 330 289 289 292 296 301 296
294 136 151 236 222 254 301 175 251 147 176 140 136 169 6 200 197 175 195 193 158 170 173 166 149 141 137 132 138 140 146 149 156 164 175 178 172 176 200 202 248 288 308 294 286 287 291 297 292
299 339 198 145 324 55 213 316 299 173 138 153 169 132 240 273 242 317 37 71 154 196 179 166 149 153 150 151 160 168 171 169 169 171 196 174 168 163 179 250 272 287 282 289 288 285 286 286 295
136 236 337 12 255 270 285 182 208 320 265 19 357 157 178 196 158 228 217 189 243 218 174 162 164 166 168 175 184 181 179 178 178 181 214 199 200 229 263 279 268 268 276 280 278 281 283 281 294
319 331 57 126 140 186 245 257 198 203 152 291 297 188 233 208 193 330 74 175 185 167 168 170 174 178 182 189 190 189 188 186 196 210 212 218 223 247 260 271 275 269 271 277 276 279 279 276 292
221 201 141 125 260 216 164 270 222 190 163 248 167 116 342 70 358 51 101 112 159 166 169 176 184 190 192 200 193 191 189 190 196 199 217 222 244 256 261 274 275 279 278 273 273 278 278 273 281